| time (UTC) | temp F | wind direction | speed knots | gust knots | rain 1hr in | rain 24hr in | rain mn in | humidity % | barometer mb |
| 20260504150309 | 79 | 63 | 6.1 | 14.8 | 0.00 | 0.00 | 0.00 | 52 | 1016.9 |
| 20260504141309 | 77 | 93 | 6.1 | 13.9 | 0.00 | 0.00 | 0.00 | 55 | 1016.8 |
| 20260504140809 | 77 | 93 | 6.1 | 14.8 | 0.00 | 0.00 | 0.00 | 57 | 1016.7 |
| 20260504140501 | 76 | 80 | 5.2 | 11.3 | 0.00 | 0.00 | 0.00 | 58 | 1016.7 |
| 20260504140309 | 77 | 92 | 5.2 | 12.2 | 0.00 | 0.00 | 0.00 | 58 | 1016.7 |
| 20260504130809 | 73 | 93 | 1.7 | 7.8 | 0.00 | 0.00 | 0.00 | 68 | 1016.4 |
| 20260504130309 | 72 | 9 | 1.7 | 5.2 | 0.00 | 0.00 | 0.00 | 70 | 1016.5 |
| 20260504120309 | 67 | 15 | 2.6 | 4.3 | 0.00 | 0.00 | 0.00 | 79 | 1016.1 |
| 20260504110309 | 64 | 9 | 1.7 | 4.3 | 0.00 | 0.00 | 0.00 | 83 | 1015.6 |
| 20260504100309 | 65 | 9 | 2.6 | 6.1 | 0.00 | 0.00 | 0.00 | 82 | 1015.2 |
| 20260504081816 | 67 | 342 | 1.7 | 3.5 | 0.00 | 0.01 | 0.00 | 80 | 1015.1 |
| 20260504081810 | 67 | 342 | 1.7 | 3.5 | 0.00 | 0.00 | 0.00 | 80 | 1015.2 |
| 20260504081310 | 67 | 342 | 1.7 | 3.5 | 0.00 | 0.01 | 0.00 | 80 | 1015.1 |
| 20260504080810 | 67 | 9 | 1.7 | 4.3 | 0.00 | 0.01 | 0.00 | 80 | 1015.2 |
| 20260504080637 | 67 | 344 | 1.7 | 4.3 | 0.00 | 0.01 | 0.00 | 80 | 1015.3 |
| 20260504080323 | 67 | 338 | 1.7 | 3.5 | 0.00 | 0.01 | 0.00 | 80 | 1015.3 |
| 20260504080310 | 67 | 344 | 1.7 | 4.3 | 0.00 | 0.01 | 0.00 | 80 | 1015.3 |
| 20260504070310 | 67 | 9 | 0.9 | 2.6 | 0.00 | 0.03 | 0.00 | 80 | 1015.3 |
| 20260504050310 | 69 | 9 | 0.9 | 1.7 | 0.00 | 0.04 | 0.00 | 76 | 1016.6 |
| 20260504045811 | 69 | 9 | 0.9 | 1.7 | 0.00 | 0.04 | 0.00 | 76 | 1016.6 |
| 20260504045758 | 69 | 93 | 0.9 | 1.7 | 0.00 | 0.04 | 0.00 | 76 | 1016.7 |
| 20260504045310 | 69 | 93 | 0.9 | 1.7 | 0.00 | 0.04 | 0.00 | 76 | 1016.7 |
| 20260504044810 | 69 | 102 | 0.9 | 1.7 | 0.00 | 0.04 | 0.00 | 76 | 1016.6 |
| 20260504044720 | 69 | 9 | 0.9 | 1.7 | 0.00 | 0.04 | 0.00 | 76 | 1016.7 |
| 20260504044310 | 69 | 9 | 0.9 | 1.7 | 0.00 | 0.04 | 0.00 | 76 | 1016.7 |
| 20260504044100 | 69 | 51 | 0.9 | 1.7 | 0.00 | 0.04 | 0.00 | 76 | 1016.7 |
| 20260504043810 | 69 | 51 | 0.9 | 1.7 | 0.00 | 0.04 | 0.00 | 76 | 1016.7 |
| 20260504043310 | 69 | 9 | 0.9 | 3.5 | 0.00 | 0.04 | 0.00 | 75 | 1016.7 |
| 20260504043305 | 70 | 93 | 0.9 | 1.7 | 0.00 | 0.04 | 0.00 | 75 | 1016.8 |
| 20260504042810 | 70 | 93 | 0.9 | 1.7 | 0.00 | 0.04 | 0.00 | 75 | 1016.8 |
| 20260504042345 | 70 | 93 | 0.9 | 2.6 | 0.00 | 0.04 | 0.00 | 75 | 1016.7 |
| 20260504042310 | 70 | 9 | 0.9 | 2.6 | 0.00 | 0.04 | 0.00 | 75 | 1016.8 |
| 20260504041946 | 70 | 9 | 0.9 | 2.6 | 0.00 | 0.13 | 0.00 | 75 | 1016.8 |
| 20260504041810 | 70 | 93 | 0.9 | 2.6 | 0.00 | 0.04 | 0.00 | 75 | 1016.7 |
| 20260504041310 | 70 | 9 | 0.9 | 2.6 | 0.00 | 0.13 | 0.00 | 75 | 1016.8 |
| 20260504041236 | 70 | 17 | 0.9 | 2.6 | 0.00 | 0.13 | 0.00 | 74 | 1016.8 |
| 20260504040810 | 70 | 44 | 0.9 | 2.6 | 0.00 | 0.13 | 0.00 | 74 | 1016.7 |
| 20260504040310 | 70 | 17 | 0.9 | 2.6 | 0.00 | 0.13 | 0.00 | 74 | 1016.8 |
| 20260504040231 | 70 | 93 | 0.9 | 2.6 | 0.00 | 0.13 | 0.00 | 73 | 1017.0 |
| 20260504035810 | 70 | 93 | 0.9 | 2.6 | 0.00 | 0.13 | 0.00 | 73 | 1017.0 |
| 20260504035310 | 70 | 26 | 1.7 | 2.6 | 0.00 | 0.13 | 0.00 | 73 | 1016.9 |
| 20260504034810 | 70 | 93 | 1.7 | 2.6 | 0.00 | 0.13 | 0.00 | 73 | 1016.9 |
| 20260504034310 | 70 | 100 | 1.7 | 3.5 | 0.00 | 0.13 | 0.00 | 73 | 1016.8 |
| 20260504033810 | 70 | 107 | 1.7 | 3.5 | 0.00 | 0.13 | 0.00 | 72 | 1016.8 |
| 20260504033310 | 70 | 119 | 1.7 | 3.5 | 0.00 | 0.13 | 0.00 | 72 | 1016.9 |
| 20260504032810 | 70 | 9 | 1.7 | 5.2 | 0.00 | 0.13 | 0.00 | 72 | 1016.8 |
| 20260504032604 | 70 | 107 | 1.7 | 5.2 | 0.00 | 0.13 | 0.00 | 72 | 1016.9 |
| 20260504032310 | 70 | 41 | 1.7 | 5.2 | 0.00 | 0.13 | 0.00 | 72 | 1016.8 |
| 20260504031810 | 70 | 107 | 1.7 | 5.2 | 0.00 | 0.13 | 0.00 | 72 | 1016.9 |
| 20260504031651 | 71 | 93 | 1.7 | 3.5 | 0.00 | 0.13 | 0.00 | 72 | 1016.8 |
| 20260504031338 | 71 | 99 | 0.9 | 3.5 | 0.00 | 0.13 | 0.00 | 72 | 1016.8 |
| 20260504031310 | 71 | 93 | 1.7 | 3.5 | 0.00 | 0.13 | 0.00 | 72 | 1016.8 |
| 20260504031012 | 71 | 342 | 1.7 | 2.6 | 0.00 | 0.13 | 0.00 | 72 | 1017.0 |
| 20260504030810 | 71 | 99 | 0.9 | 3.5 | 0.00 | 0.13 | 0.00 | 72 | 1016.8 |
| 20260504030310 | 71 | 342 | 1.7 | 2.6 | 0.00 | 0.13 | 0.00 | 72 | 1017.0 |
| 20260504030141 | 71 | 61 | 1.7 | 2.6 | 0.00 | 0.13 | 0.00 | 72 | 1016.8 |
| 20260504025810 | 71 | 34 | 1.7 | 3.5 | 0.00 | 0.13 | 0.00 | 72 | 1016.8 |
| 20260504025511 | 71 | 93 | 1.7 | 3.5 | 0.00 | 0.13 | 0.00 | 71 | 1016.8 |
| 20260504025310 | 71 | 61 | 1.7 | 2.6 | 0.00 | 0.13 | 0.00 | 72 | 1016.8 |
| 20260504024810 | 71 | 93 | 1.7 | 3.5 | 0.00 | 0.13 | 0.00 | 71 | 1016.8 |
| 20260504024310 | 71 | 105 | 1.7 | 3.5 | 0.00 | 0.13 | 0.00 | 71 | 1016.7 |
| 20260504023816 | 71 | 19 | 1.7 | 3.5 | 0.00 | 0.13 | 0.00 | 72 | 1016.7 |
| 20260504023810 | 71 | 93 | 1.7 | 5.2 | 0.00 | 0.13 | 0.00 | 72 | 1016.8 |
| 20260504023310 | 71 | 19 | 1.7 | 3.5 | 0.00 | 0.13 | 0.00 | 72 | 1016.7 |
| 20260504023235 | 71 | 9 | 1.7 | 5.2 | 0.00 | 0.13 | 0.00 | 72 | 1016.6 |
| 20260504023039 | 71 | 86 | 1.7 | 3.5 | 0.00 | 0.13 | 0.00 | 72 | 1016.6 |
| 20260504022810 | 71 | 9 | 1.7 | 5.2 | 0.00 | 0.13 | 0.00 | 72 | 1016.6 |
| 20260504022310 | 71 | 86 | 1.7 | 3.5 | 0.00 | 0.13 | 0.00 | 72 | 1016.6 |
| 20260504022137 | 71 | 99 | 2.6 | 7.0 | 0.00 | 0.13 | 0.00 | 72 | 1016.5 |
| 20260504021818 | 71 | 98 | 1.7 | 5.2 | 0.00 | 0.13 | 0.00 | 72 | 1016.6 |
| 20260504021810 | 71 | 99 | 2.6 | 7.0 | 0.00 | 0.13 | 0.00 | 72 | 1016.5 |
| 20260504021310 | 71 | 98 | 1.7 | 5.2 | 0.00 | 0.13 | 0.00 | 72 | 1016.6 |
| 20260504020845 | 71 | 111 | 2.6 | 5.2 | 0.00 | 0.13 | 0.00 | 72 | 1016.5 |
| 20260504020810 | 71 | 93 | 2.6 | 5.2 | 0.00 | 0.13 | 0.00 | 72 | 1016.6 |
| 20260504020310 | 71 | 111 | 2.6 | 5.2 | 0.00 | 0.13 | 0.00 | 72 | 1016.5 |
| 20260504015937 | 71 | 93 | 2.6 | 6.1 | 0.00 | 0.13 | 0.00 | 72 | 1016.3 |
| 20260504015810 | 71 | 97 | 2.6 | 6.1 | 0.00 | 0.13 | 0.00 | 72 | 1016.4 |
| 20260504015310 | 71 | 86 | 2.6 | 5.2 | 0.00 | 0.13 | 0.00 | 72 | 1016.3 |
| 20260504015101 | 71 | 99 | 2.6 | 5.2 | 0.00 | 0.13 | 0.00 | 72 | 1016.2 |
| 20260504014810 | 71 | 93 | 2.6 | 6.1 | 0.00 | 0.13 | 0.00 | 72 | 1016.3 |
| 20260504014310 | 71 | 100 | 2.6 | 7.0 | 0.00 | 0.13 | 0.00 | 72 | 1016.3 |
| 20260504013815 | 71 | 86 | 2.6 | 5.2 | 0.00 | 0.13 | 0.00 | 72 | 1016.2 |
| 20260504013810 | 71 | 99 | 2.6 | 5.2 | 0.00 | 0.13 | 0.00 | 72 | 1016.2 |
| 20260504013310 | 71 | 86 | 2.6 | 5.2 | 0.00 | 0.13 | 0.00 | 72 | 1016.2 |
| 20260504013038 | 71 | 93 | 2.6 | 6.1 | 0.00 | 0.13 | 0.00 | 72 | 1016.2 |
| 20260504012810 | 71 | 86 | 2.6 | 6.1 | 0.00 | 0.13 | 0.00 | 72 | 1016.2 |
| 20260504012310 | 71 | 93 | 2.6 | 6.1 | 0.00 | 0.13 | 0.00 | 72 | 1016.2 |
| 20260504011810 | 71 | 97 | 3.5 | 5.2 | 0.00 | 0.13 | 0.00 | 71 | 1016.2 |
| 20260504011311 | 71 | 107 | 2.6 | 6.1 | 0.00 | 0.13 | 0.00 | 71 | 1016.2 |
| 20260504011056 | 71 | 104 | 2.6 | 7.0 | 0.00 | 0.13 | 0.00 | 71 | 1016.2 |
| 20260504010810 | 71 | 102 | 2.6 | 6.1 | 0.00 | 0.13 | 0.00 | 71 | 1016.1 |
| 20260504010310 | 71 | 104 | 2.6 | 7.0 | 0.00 | 0.13 | 0.00 | 71 | 1016.2 |
| 20260504005811 | 71 | 93 | 3.5 | 5.2 | 0.00 | 0.13 | 0.00 | 71 | 1016.2 |
| 20260504005311 | 71 | 105 | 3.5 | 7.0 | 0.00 | 0.13 | 0.00 | 71 | 1016.0 |
| 20260504004839 | 72 | 96 | 3.5 | 7.8 | 0.00 | 0.13 | 0.00 | 70 | 1015.8 |
| 20260504004811 | 72 | 86 | 3.5 | 7.8 | 0.00 | 0.13 | 0.00 | 70 | 1015.8 |
| 20260504004311 | 72 | 96 | 3.5 | 7.8 | 0.00 | 0.13 | 0.00 | 70 | 1015.8 |
| 20260504004226 | 72 | 115 | 3.5 | 7.8 | 0.00 | 0.13 | 0.00 | 70 | 1015.9 |
| 20260504003811 | 72 | 115 | 3.5 | 7.8 | 0.00 | 0.13 | 0.00 | 70 | 1015.9 |
| 20260504003311 | 72 | 98 | 3.5 | 8.7 | 0.00 | 0.13 | 0.00 | 70 | 1015.7 |
| 20260504003141 | 73 | 99 | 3.5 | 7.8 | 0.00 | 0.13 | 0.00 | 69 | 1015.7 |
| 20260504002811 | 72 | 90 | 3.5 | 7.8 | 0.00 | 0.13 | 0.00 | 69 | 1015.7 |
| 20260504002311 | 73 | 99 | 3.5 | 7.8 | 0.00 | 0.13 | 0.00 | 69 | 1015.7 |
| 20260504002139 | 73 | 97 | 3.5 | 7.8 | 0.00 | 0.13 | 0.00 | 69 | 1015.7 |
| 20260504001811 | 73 | 97 | 3.5 | 7.8 | 0.00 | 0.13 | 0.00 | 69 | 1015.7 |
| 20260504001637 | 73 | 96 | 3.5 | 7.8 | 0.00 | 0.13 | 0.00 | 68 | 1015.5 |
| 20260504001311 | 73 | 102 | 3.5 | 7.8 | 0.00 | 0.13 | 0.00 | 68 | 1015.6 |
| 20260504001138 | 73 | 101 | 3.5 | 7.8 | 0.00 | 0.13 | 0.00 | 67 | 1015.5 |
| 20260504000811 | 73 | 96 | 3.5 | 7.8 | 0.00 | 0.13 | 0.00 | 68 | 1015.5 |
| 20260504000809 | 73 | 51 | 3.5 | 7.8 | 0.00 | 0.13 | 0.00 | 68 | 1015.4 |
| 20260504000311 | 73 | 101 | 3.5 | 7.8 | 0.00 | 0.13 | 0.00 | 67 | 1015.5 |
| 20260503235811 | 73 | 51 | 3.5 | 7.8 | 0.00 | 0.13 | 0.00 | 68 | 1015.4 |
| 20260503235805 | 74 | 74 | 4.3 | 9.6 | 0.00 | 0.13 | 0.13 | 67 | 1015.4 |
| 20260503235316 | 74 | 102 | 4.3 | 8.7 | 0.00 | 0.13 | 0.13 | 67 | 1015.3 |
| 20260503235311 | 74 | 74 | 4.3 | 9.6 | 0.00 | 0.13 | 0.13 | 67 | 1015.4 |
| 20260503234811 | 74 | 102 | 4.3 | 8.7 | 0.00 | 0.13 | 0.13 | 67 | 1015.3 |
| 20260503234311 | 74 | 92 | 3.5 | 8.7 | 0.00 | 0.13 | 0.13 | 66 | 1015.3 |
| 20260503233839 | 74 | 97 | 5.2 | 10.4 | 0.00 | 0.13 | 0.13 | 66 | 1015.4 |
| 20260503233811 | 74 | 93 | 3.5 | 6.1 | 0.00 | 0.13 | 0.13 | 66 | 1015.3 |
| 20260503233437 | 74 | 58 | 5.2 | 9.6 | 0.00 | 0.13 | 0.13 | 65 | 1015.2 |
| 20260503233311 | 74 | 97 | 5.2 | 10.4 | 0.00 | 0.13 | 0.13 | 66 | 1015.4 |
| 20260503232818 | 75 | 98 | 6.1 | 10.4 | 0.00 | 0.13 | 0.13 | 65 | 1015.2 |
| 20260503232811 | 74 | 58 | 5.2 | 9.6 | 0.00 | 0.13 | 0.13 | 65 | 1015.2 |
| 20260503232311 | 75 | 98 | 6.1 | 10.4 | 0.00 | 0.13 | 0.13 | 65 | 1015.2 |
| 20260503231811 | 75 | 93 | 5.2 | 10.4 | 0.00 | 0.13 | 0.13 | 65 | 1015.1 |
| 20260503231636 | 75 | 98 | 5.2 | 11.3 | 0.00 | 0.13 | 0.13 | 64 | 1015.2 |
| 20260503231311 | 75 | 98 | 5.2 | 11.3 | 0.00 | 0.13 | 0.13 | 64 | 1015.2 |
| 20260503231137 | 76 | 99 | 5.2 | 9.6 | 0.00 | 0.13 | 0.13 | 63 | 1015.2 |
| 20260503231012 | 76 | 80 | 5.2 | 9.6 | 0.00 | 0.13 | 0.13 | 63 | 1015.2 |
| 20260503230811 | 76 | 99 | 5.2 | 9.6 | 0.00 | 0.13 | 0.13 | 63 | 1015.2 |
| 20260503230311 | 76 | 80 | 5.2 | 9.6 | 0.00 | 0.13 | 0.13 | 63 | 1015.2 |
| 20260503225847 | 76 | 98 | 6.1 | 10.4 | 0.00 | 0.13 | 0.13 | 62 | 1015.3 |
| 20260503225811 | 76 | 98 | 5.2 | 10.4 | 0.00 | 0.13 | 0.13 | 63 | 1015.2 |
| 20260503225311 | 76 | 98 | 6.1 | 10.4 | 0.00 | 0.13 | 0.13 | 62 | 1015.3 |
| 20260503224839 | 77 | 93 | 6.1 | 14.8 | 0.00 | 0.13 | 0.13 | 61 | 1015.2 |
| 20260503224811 | 77 | 90 | 7.0 | 11.3 | 0.00 | 0.13 | 0.13 | 62 | 1015.2 |
| 20260503224311 | 77 | 93 | 6.1 | 14.8 | 0.00 | 0.13 | 0.13 | 61 | 1015.2 |
| 20260503223811 | 78 | 102 | 4.3 | 8.7 | 0.00 | 0.13 | 0.13 | 60 | 1015.2 |
| 20260503223807 | 79 | 100 | 5.2 | 9.6 | 0.00 | 0.13 | 0.13 | 59 | 1015.2 |
| 20260503223311 | 79 | 100 | 5.2 | 9.6 | 0.00 | 0.13 | 0.13 | 59 | 1015.2 |
| 20260503222811 | 79 | 88 | 7.0 | 14.8 | 0.00 | 0.13 | 0.13 | 60 | 1015.1 |
| 20260503222311 | 79 | 96 | 7.8 | 12.2 | 0.00 | 0.13 | 0.13 | 59 | 1015.1 |
| 20260503221811 | 78 | 97 | 7.8 | 14.8 | 0.00 | 0.13 | 0.13 | 60 | 1015.0 |
| 20260503221640 | 79 | 95 | 6.1 | 12.2 | 0.00 | 0.15 | 0.13 | 59 | 1015.2 |
| 20260503221311 | 79 | 95 | 6.1 | 12.2 | 0.00 | 0.15 | 0.13 | 59 | 1015.2 |
| 20260503221137 | 79 | 93 | 5.2 | 9.6 | 0.00 | 0.15 | 0.13 | 59 | 1015.0 |
| 20260503220823 | 80 | 83 | 5.2 | 12.2 | 0.00 | 0.15 | 0.13 | 58 | 1014.9 |
| 20260503220811 | 79 | 93 | 5.2 | 9.6 | 0.00 | 0.15 | 0.13 | 59 | 1015.0 |
| 20260503220311 | 80 | 83 | 5.2 | 12.2 | 0.00 | 0.15 | 0.13 | 58 | 1014.9 |
| 20260503215811 | 79 | 76 | 5.2 | 9.6 | 0.00 | 0.15 | 0.13 | 59 | 1015.0 |
| 20260503215636 | 79 | 95 | 5.2 | 9.6 | 0.00 | 0.15 | 0.13 | 59 | 1014.9 |
| 20260503215311 | 79 | 95 | 5.2 | 9.6 | 0.00 | 0.15 | 0.13 | 59 | 1014.9 |
| 20260503215139 | 78 | 71 | 4.3 | 8.7 | 0.00 | 0.15 | 0.13 | 60 | 1015.0 |
| 20260503214811 | 78 | 71 | 4.3 | 8.7 | 0.00 | 0.15 | 0.13 | 60 | 1015.0 |
| 20260503214657 | 78 | 90 | 4.3 | 7.8 | 0.00 | 0.15 | 0.13 | 61 | 1014.9 |
| 20260503214311 | 78 | 90 | 4.3 | 7.8 | 0.00 | 0.15 | 0.13 | 61 | 1014.9 |
| 20260503214034 | 78 | 97 | 5.2 | 9.6 | 0.00 | 0.15 | 0.13 | 59 | 1014.8 |
| 20260503213840 | 78 | 100 | 5.2 | 9.6 | 0.00 | 0.15 | 0.13 | 59 | 1014.9 |
| 20260503213811 | 78 | 97 | 5.2 | 9.6 | 0.00 | 0.15 | 0.13 | 59 | 1014.8 |
| 20260503213311 | 78 | 100 | 5.2 | 9.6 | 0.00 | 0.15 | 0.13 | 59 | 1014.9 |
| 20260503212811 | 78 | 90 | 5.2 | 11.3 | 0.00 | 0.15 | 0.13 | 59 | 1015.1 |
| 20260503212602 | 79 | 93 | 6.1 | 8.7 | 0.00 | 0.15 | 0.13 | 57 | 1014.9 |
| 20260503212311 | 79 | 93 | 6.1 | 8.7 | 0.00 | 0.15 | 0.13 | 57 | 1014.9 |
| 20260503211942 | 79 | 96 | 6.1 | 11.3 | 0.00 | 0.15 | 0.13 | 57 | 1014.9 |
| 20260503211811 | 79 | 96 | 6.1 | 11.3 | 0.00 | 0.15 | 0.13 | 57 | 1014.9 |
| 20260503211445 | 79 | 96 | 5.2 | 11.3 | 0.00 | 0.15 | 0.13 | 57 | 1014.8 |
| 20260503211311 | 79 | 96 | 5.2 | 11.3 | 0.00 | 0.15 | 0.13 | 57 | 1014.8 |
| 20260503211005 | 79 | 9 | 3.5 | 8.7 | 0.00 | 0.15 | 0.13 | 57 | 1014.9 |
| 20260503210811 | 79 | 9 | 3.5 | 8.7 | 0.00 | 0.15 | 0.13 | 57 | 1014.9 |
| 20260503210444 | 79 | 104 | 2.6 | 7.0 | 0.00 | 0.15 | 0.13 | 55 | 1015.0 |
| 20260503210311 | 79 | 104 | 2.6 | 7.0 | 0.00 | 0.15 | 0.13 | 55 | 1015.0 |
| 20260503210017 | 80 | 67 | 3.5 | 7.0 | 0.00 | 0.15 | 0.13 | 55 | 1015.0 |
| 20260503205811 | 80 | 67 | 3.5 | 7.0 | 0.00 | 0.15 | 0.13 | 55 | 1015.0 |
| 20260503205603 | 81 | 98 | 3.5 | 12.2 | 0.00 | 0.15 | 0.13 | 53 | 1014.9 |
| 20260503205311 | 81 | 98 | 3.5 | 12.2 | 0.00 | 0.15 | 0.13 | 53 | 1014.9 |
| 20260503204938 | 81 | 87 | 2.6 | 4.3 | 0.00 | 0.15 | 0.13 | 53 | 1014.9 |
| 20260503204811 | 82 | 100 | 2.6 | 10.4 | 0.00 | 0.15 | 0.13 | 53 | 1014.9 |
| 20260503204504 | 80 | 9 | 3.5 | 7.8 | 0.00 | 0.15 | 0.13 | 54 | 1015.1 |
| 20260503204311 | 81 | 87 | 2.6 | 4.3 | 0.00 | 0.15 | 0.13 | 53 | 1014.9 |
| 20260503204014 | 81 | 9 | 4.3 | 8.7 | 0.00 | 0.15 | 0.13 | 53 | 1015.2 |
| 20260503203811 | 80 | 9 | 3.5 | 7.8 | 0.00 | 0.15 | 0.13 | 54 | 1015.1 |
| 20260503203311 | 81 | 9 | 4.3 | 8.7 | 0.00 | 0.15 | 0.13 | 53 | 1015.2 |
| 20260503202812 | 82 | 101 | 4.3 | 9.6 | 0.00 | 0.15 | 0.13 | 52 | 1015.2 |
| 20260503202437 | 82 | 93 | 3.5 | 13.0 | 0.00 | 0.15 | 0.13 | 53 | 1015.1 |
| 20260503202311 | 82 | 101 | 4.3 | 9.6 | 0.00 | 0.15 | 0.13 | 52 | 1015.2 |
| 20260503201811 | 82 | 93 | 3.5 | 13.0 | 0.00 | 0.15 | 0.13 | 53 | 1015.1 |
| 20260503201636 | 81 | 83 | 3.5 | 7.8 | 0.00 | 0.17 | 0.13 | 54 | 1015.0 |
| 20260503201311 | 81 | 83 | 3.5 | 7.8 | 0.00 | 0.17 | 0.13 | 54 | 1015.0 |
| 20260503201014 | 81 | 93 | 5.2 | 8.7 | 0.00 | 0.17 | 0.13 | 53 | 1015.3 |
| 20260503200811 | 80 | 93 | 5.2 | 8.7 | 0.00 | 0.17 | 0.13 | 55 | 1015.2 |
| 20260503200311 | 81 | 93 | 5.2 | 8.7 | 0.00 | 0.17 | 0.13 | 53 | 1015.3 |
| 20260503200218 | 82 | 90 | 4.3 | 11.3 | 0.00 | 0.17 | 0.13 | 53 | 1015.4 |
| 20260503195846 | 82 | 51 | 3.5 | 9.6 | 0.00 | 0.17 | 0.13 | 52 | 1015.4 |
| 20260503195811 | 82 | 90 | 4.3 | 11.3 | 0.00 | 0.17 | 0.13 | 53 | 1015.4 |
| 20260503195311 | 82 | 51 | 3.5 | 9.6 | 0.00 | 0.17 | 0.13 | 52 | 1015.4 |
| 20260503194812 | 82 | 102 | 3.5 | 9.6 | 0.00 | 0.17 | 0.13 | 51 | 1015.6 |
| 20260503194311 | 82 | 102 | 3.5 | 9.6 | 0.00 | 0.17 | 0.13 | 51 | 1015.6 |
| 20260503193816 | 81 | 9 | 3.5 | 7.0 | 0.00 | 0.17 | 0.13 | 55 | 1015.7 |
| 20260503193811 | 82 | 22 | 2.6 | 8.7 | 0.00 | 0.17 | 0.13 | 53 | 1015.6 |
| 20260503193311 | 81 | 9 | 3.5 | 7.0 | 0.00 | 0.17 | 0.13 | 55 | 1015.7 |
| 20260503193136 | 81 | 107 | 2.6 | 7.0 | 0.00 | 0.17 | 0.13 | 54 | 1015.8 |
| 20260503192811 | 81 | 107 | 2.6 | 7.0 | 0.00 | 0.17 | 0.13 | 54 | 1015.8 |
| 20260503192638 | 82 | 16 | 2.6 | 9.6 | 0.00 | 0.17 | 0.13 | 52 | 1016.0 |
| 20260503192311 | 82 | 16 | 2.6 | 9.6 | 0.00 | 0.17 | 0.13 | 52 | 1016.0 |
| 20260503192015 | 82 | 105 | 2.6 | 8.7 | 0.00 | 0.17 | 0.13 | 54 | 1016.0 |
| 20260503191811 | 82 | 105 | 2.6 | 8.7 | 0.00 | 0.17 | 0.13 | 54 | 1016.0 |
| 20260503191603 | 81 | 205 | 2.6 | 6.1 | 0.00 | 0.27 | 0.13 | 53 | 1016.1 |
| 20260503191311 | 81 | 205 | 2.6 | 6.1 | 0.00 | 0.27 | 0.13 | 53 | 1016.1 |
| 20260503190811 | 81 | 93 | 2.6 | 7.8 | 0.00 | 0.27 | 0.13 | 54 | 1016.2 |
| 20260503190733 | 81 | 100 | 3.5 | 7.8 | 0.00 | 0.27 | 0.13 | 55 | 1016.3 |
| 20260503190311 | 81 | 100 | 3.5 | 7.8 | 0.00 | 0.27 | 0.13 | 55 | 1016.3 |
| 20260503190156 | 82 | 93 | 3.5 | 9.6 | 0.00 | 0.27 | 0.13 | 55 | 1016.2 |
| 20260503185811 | 82 | 93 | 3.5 | 9.6 | 0.00 | 0.27 | 0.13 | 55 | 1016.2 |
| 20260503185311 | 81 | 58 | 2.6 | 7.8 | 0.00 | 0.27 | 0.13 | 55 | 1016.4 |
| 20260503184811 | 80 | 22 | 3.5 | 8.7 | 0.00 | 0.27 | 0.13 | 57 | 1016.5 |
| 20260503184311 | 80 | 97 | 4.3 | 10.4 | 0.00 | 0.27 | 0.13 | 57 | 1016.5 |
| 20260503184137 | 80 | 96 | 3.5 | 8.7 | 0.00 | 0.27 | 0.13 | 57 | 1016.5 |
| 20260503183811 | 80 | 96 | 3.5 | 8.7 | 0.00 | 0.27 | 0.13 | 57 | 1016.5 |
| 20260503183732 | 80 | 98 | 3.5 | 7.8 | 0.00 | 0.27 | 0.13 | 57 | 1016.6 |
| 20260503183311 | 80 | 98 | 3.5 | 7.8 | 0.00 | 0.27 | 0.13 | 57 | 1016.6 |
| 20260503182811 | 80 | 58 | 3.5 | 7.8 | 0.00 | 0.27 | 0.13 | 57 | 1016.7 |
| 20260503182636 | 80 | 36 | 2.6 | 8.7 | 0.00 | 0.27 | 0.13 | 58 | 1016.8 |
| 20260503182312 | 80 | 36 | 2.6 | 8.7 | 0.00 | 0.27 | 0.13 | 58 | 1016.8 |
| 20260503181914 | 81 | 107 | 2.6 | 7.8 | 0.00 | 0.27 | 0.13 | 57 | 1016.8 |
| 20260503181811 | 81 | 107 | 2.6 | 7.8 | 0.00 | 0.27 | 0.13 | 57 | 1016.8 |
| 20260503181351 | 80 | 26 | 3.5 | 7.0 | 0.00 | 0.27 | 0.13 | 58 | 1016.9 |
| 20260503181311 | 80 | 26 | 3.5 | 7.0 | 0.00 | 0.27 | 0.13 | 58 | 1016.9 |
| 20260503180811 | 79 | 93 | 3.5 | 7.8 | 0.00 | 0.27 | 0.13 | 62 | 1016.9 |
| 20260503180414 | 78 | 101 | 3.5 | 12.2 | 0.00 | 0.27 | 0.13 | 62 | 1017.0 |
| 20260503180311 | 78 | 101 | 3.5 | 12.2 | 0.00 | 0.27 | 0.13 | 62 | 1017.0 |
| 20260503175811 | 78 | 346 | 3.5 | 8.7 | 0.00 | 0.27 | 0.13 | 62 | 1017.2 |
| 20260503175438 | 77 | 88 | 3.5 | 8.7 | 0.00 | 0.27 | 0.13 | 62 | 1017.1 |
| 20260503175311 | 77 | 88 | 3.5 | 8.7 | 0.00 | 0.27 | 0.13 | 62 | 1017.1 |
| 20260503174811 | 77 | 97 | 4.3 | 8.7 | 0.00 | 0.27 | 0.13 | 61 | 1017.2 |
| 20260503174630 | 77 | 59 | 4.3 | 10.4 | 0.00 | 0.27 | 0.13 | 63 | 1017.1 |
| 20260503174311 | 77 | 59 | 4.3 | 10.4 | 0.00 | 0.27 | 0.13 | 63 | 1017.1 |
| 20260503173811 | 77 | 85 | 3.5 | 13.9 | 0.00 | 0.27 | 0.13 | 63 | 1017.1 |
| 20260503173311 | 77 | 63 | 2.6 | 7.8 | 0.00 | 0.27 | 0.13 | 63 | 1017.2 |
| 20260503172811 | 77 | 350 | 2.6 | 7.8 | 0.00 | 0.27 | 0.13 | 64 | 1017.1 |
| 20260503172334 | 76 | 67 | 3.5 | 9.6 | 0.00 | 0.27 | 0.13 | 64 | 1017.2 |
| 20260503172311 | 77 | 82 | 3.5 | 7.0 | 0.00 | 0.27 | 0.13 | 64 | 1017.2 |
| 20260503171811 | 76 | 67 | 3.5 | 9.6 | 0.00 | 0.27 | 0.13 | 64 | 1017.2 |
| 20260503171311 | 76 | 32 | 3.5 | 9.6 | 0.00 | 0.27 | 0.13 | 65 | 1017.2 |
| 20260503171127 | 76 | 97 | 3.5 | 8.7 | 0.00 | 0.27 | 0.13 | 66 | 1017.3 |
| 20260503170816 | 76 | 178 | 3.5 | 7.8 | 0.00 | 0.27 | 0.13 | 66 | 1017.5 |
| 20260503170812 | 76 | 97 | 3.5 | 8.7 | 0.00 | 0.27 | 0.13 | 66 | 1017.3 |
| 20260503170312 | 76 | 178 | 3.5 | 7.8 | 0.00 | 0.27 | 0.13 | 66 | 1017.5 |
| 20260503170138 | 76 | 11 | 3.5 | 9.6 | 0.00 | 0.27 | 0.13 | 66 | 1017.5 |
| 20260503160213 | 73 | 93 | 3.5 | 7.8 | 0.00 | 0.27 | 0.13 | 73 | 1017.7 |
| 20260503150812 | 69 | 43 | 2.6 | 8.7 | 0.00 | 0.27 | 0.13 | 79 | 1018.0 |
| 20260503150639 | 69 | 11 | 2.6 | 7.8 | 0.00 | 0.27 | 0.13 | 79 | 1018.0 |